Location: Newark
(42.7133°N, 87.7910°W)
Time: 08:35:11
(UTC+00:00)

A-11 Canister half - Pass Details

Date: 02 October 2019
Orbit: 1527 x 1682 km, 47.3° (Epoch: 14 October)

Event Time Altitude Azimuth Distance (km) Brightness Sun altitude
Exits shadow 06:12:11 18° 73° (ENE) 3,145 10.7 -50.1°
Drops below altitude 10° 06:14:09 10° 68° (ENE) 3,736 11.2 -50.1°
Sets 06:17:19 0° 64° (ENE) 4,738 11.9 -49.9°
